This is the latest recevied weather packets stored in our database for station/object KY4LEX. If no packets are shown the sender has not sent any weather packets the latest 10 day(s).
| Time | Temp. | Humidity | Pressure | Rain* | Wind** | Luminosity | Snow |
|---|---|---|---|---|---|---|---|
| 1778120500 | 13.89° C | 62% | 1019.5 hPa | 0 mm | - | 0 W/m² | - |
| 1778120197 | 13.89° C | 64% | 1019.4 hPa | 0 mm | - | 0 W/m² | - |
| 1778119892 | 13.89° C | 63% | 1019.4 hPa | 0 mm | - | 0 W/m² | - |
| 1778119591 | 13.89° C | 64% | 1019.4 hPa | 0 mm | - | 0 W/m² | - |
| 1778119287 | 13.89° C | 64% | 1019.2 hPa | 0 mm | - | 0 W/m² | - |
| 1778118985 | 13.89° C | 64% | 1018.9 hPa | 0 mm | - | 0 W/m² | - |
| 1778118682 | 13.89° C | 63% | 1019.1 hPa | 0 mm | - | 0 W/m² | - |
| 1778118379 | 13.89° C | 62% | 1019.1 hPa | 0 mm | - | 0 W/m² | - |
| 1778118075 | 13.89° C | 63% | 1019.1 hPa | 0 mm | - | 0 W/m² | - |
| 1778117772 | 13.89° C | 66% | 1019.3 hPa | 0 mm | - | 0 W/m² | - |
| 1778117469 | 13.89° C | 64% | 1019.3 hPa | 0 mm | - | 0 W/m² | - |
| 1778117166 | 13.89° C | 67% | 1019.4 hPa | 0 mm | - | 0 W/m² | - |
| 1778116861 | 13.89° C | 68% | 1019.3 hPa | 0 mm | - | 0 W/m² | - |
| 1778116560 | 13.89° C | 66% | 1019.3 hPa | 0 mm | - | 0 W/m² | - |
| 1778116255 | 13.89° C | 65% | 1019.1 hPa | 0 mm | - | 0 W/m² | - |
| 1778115950 | 13.89° C | 64% | 1019.4 hPa | 0 mm | - | 0 W/m² | - |
| 1778115647 | 13.89° C | 65% | 1019.2 hPa | 0 mm | - | 0 W/m² | - |
| 1778115345 | 13.89° C | 62% | 1019.4 hPa | 0 mm | - | 0 W/m² | - |
| 1778115040 | 13.89° C | 64% | 1019.3 hPa | 0 mm | - | 0 W/m² | - |
| 1778114738 | 13.89° C | 64% | 1019 hPa | 0 mm | - | 0 W/m² | - |
| 1778114435 | 13.89° C | 63% | 1019 hPa | 0 mm | - | 0 W/m² | - |
| 1778114131 | 14.44° C | 65% | 1018.9 hPa | 0 mm | - | 1 W/m² | - |
| 1778113825 | 14.44° C | 63% | 1018.9 hPa | 0 mm | - | 1 W/m² | - |
| 1778113523 | 14.44° C | 64% | 1019.1 hPa | 0 mm | - | 1 W/m² | - |
| 1778113219 | 14.44° C | 61% | 1018.9 hPa | 0 mm | - | 1 W/m² | - |
* Rain latest hour (hover to see other rain measurements)
** Current wind speed in m/s (hover to see current wind gust speed)